星链-36962(STARLINK-36962)

导读

STARLINK-36962(NORAD编号68269)是SpaceX星链(Starlink)低轨互联网星座中的一颗卫星,归属于SpaceX大规模近地轨道卫星互联网组网计划。星链项目旨在构建覆盖全球的低时延、高速率天基通信网络,填补偏远地区通信空白,该卫星原运行于约550公里高度近地轨道。 2026年SpaceX启动降轨计划,包含该卫星在内的4400颗星链卫星将降低轨道至480公里,以此缩短故障卫星再入大气层时间,减少太空碎片,降低碰撞风险,缓解近地轨道拥挤问题,应对凯斯勒现象风险。

Basic Information
目录编号:
68269
目录名称:
STARLINK-36962
国际标识:
2026-055H
轨道中心:
EARTH
卫星名称:
星链-36962
卫星全名:
星链-36962(STARLINK-36962)
卫星状态:
在轨 (已飞行178 天)
发射日期:
2026-03-19 UTC
国别 :
美国 (US)
星等 :
--
This satellite is enrolled in the Space Conjunction Data Service (SCDS) and the current flight risk assessment level is: No High Risk
Orbit Information
数据来源 国际轨道数据
星历时间: 2026-09-13T11:04:00+0800
8小时前
查看轨道信息
半长轴: 6840.848km
偏心率: 0.0001347
轨道倾角: 53.159°
近地点辐角 85.677°
升交点赤经 163.996°
平近点角 274.439°
近地点: 461.789km
远地点: 463.633km
周期: 93.848分钟
每日圈数: 15.343977
Detailed Information
固有亮度:
5
最大亮度:
2.5
卫星平台:
Starlink V1.0
覆盖范围:
全球
运营商:
太空探索技术公司
运营商所在国:
美国
制造商(研发单位):
太空探索技术公司
制造商所在国:
美国
使用方式:
暂无
Satellite Introduction
Starlink 计划是 SpaceX 推出的全球卫星互联网项目,通过发射低轨道卫星,为全球尤其是偏远地区提供高速、低延迟的互联网服务。自 2019 年起,Starlink 已部署数千颗卫星,旨在缩小全球数字鸿沟,推动互联网普及。该项目还为军事、航空等行业提供通信支持,带来广泛经济效益。
2D Orbit Map
3D Orbit Map
Orbit Altitude Analysis Chart
Orbit Inclination Analysis Chart
Orbit Comprehensive Analysis Chart
View Comprehensive Chart
Conjunction Data List
Event ID Objects TCA Miss Dist (km) Collision Risk Probability Collision Risk Index (CRI) Action
CDM_260911-015405-317306-826922
2026-09-11T
01:54:03+0000
2.538 km
极远距离
1.510001E-6 低风险 0.39
CDM_260913-123305-927106-826921
2026-09-13T
12:33:01+0000
2.819 km
极远距离
1.274219E-6 低风险 0.37
CDM_260915-002605-338906-826921
2026-09-15T
00:26:41+0000
2.932 km
极远距离
1.230728E-6 低风险 0.37
CDM_260911-000205-199306-826922
2026-09-11T
00:02:07+0000
2.800 km
极远距离
1.153166E-6 低风险 0.36
Miss Distance Evolution Trend with All Objects
Collision Probability Evolution Trend with All Objects